Chester, SC

3:07 PM EDT on May 29, 2017 (GMT -0400)
Chester

Weather History for KDCM - November, 2011

Change the Weather History Date:

Monday, November 21, 2011

  Actual Average (KUZA) Record (KUZA)
Temperature  
Mean Temperature 67 °F -  
Max Temperature 75 °F 59 °F 76 °F (1991)
Min Temperature 57 °F 39 °F 21 °F (2000)
Cooling Degree Days 2    
Growing Degree Days 17 (Base 50)    
Moisture  
Dew Point 60 °F    
Average Humidity 90    
Maximum Humidity 100    
Minimum Humidity 57    
Precipitation  
Precipitation 0.32 in - - ()
Sea Level Pressure  
Sea Level Pressure 30.23 in    
Wind  
Wind Speed 4 mph (SW)    
Max Wind Speed 16 mph    
Max Gust Speed 22 mph    
Visibility 5 miles    
Events Fog , Rain , Thunderstorm    
Averages and records for this station are not official NWS values.
T = Trace of Precipitation, MM = Missing Value Source: NWS Daily Summary

Daily Weather History Graph

Daily Weather History Graph

Search for Another Location

Airport or City:

Trip Planner

Search our weather history database for the weather conditions in past years. The results will help you decide how hot, cold, wet, or windy it might be!

Date:

Astronomy

Nov. 21, 2011 Rise Set
Actual Time 7:04 AM EST 5:16 PM EST
Civil Twilight 6:37 AM EST 5:43 PM EST
Nautical Twilight 6:06 AM EST 6:14 PM EST
Astronomical Twilight 5:36 AM EST 6:44 PM EST
Moon 2:49 AM EST (11/21) 2:31 PM EST (11/21)
Length of Visible Light 11h 06m
Length of Day
10h 12m
Waning Crescent, 18% of the Moon is Illuminated
Nov 21
Waning Crescent
Nov 25
New
Dec 2
First Quarter
Dec 10
Full
Dec 17
Last Quarter

Hourly Weather History & Observations

Time (EST) Temp. Dew Point Humidity Pressure Visibility Wind Dir Wind Speed Gust Speed Precip Events Conditions
12:15 AM 59.0 °F 59.0 °F 100% 30.25 in 2.5 mi SW 3.5 mph - N/A   Overcast
12:35 AM 59.0 °F 59.0 °F 100% 30.26 in 3.0 mi SSW 5.8 mph - N/A   Overcast
12:55 AM 59.0 °F 59.0 °F 100% 30.25 in 3.0 mi SW 4.6 mph - N/A   Overcast
1:15 AM 59.0 °F 59.0 °F 100% 30.25 in 3.0 mi SW 3.5 mph - N/A   Overcast
1:35 AM 59.0 °F 59.0 °F 100% 30.24 in 3.0 mi WSW 3.5 mph - N/A   Overcast
1:55 AM 60.8 °F 60.8 °F 100% 30.24 in 4.0 mi SW 3.5 mph - N/A   Overcast
2:15 AM 60.8 °F 60.8 °F 100% 30.24 in 4.0 mi SSW 3.5 mph - N/A   Overcast
2:35 AM 59.0 °F 59.0 °F 100% 30.24 in 1.2 mi SSW 5.8 mph - N/A   Overcast
2:55 AM 59.0 °F 59.0 °F 100% 30.24 in 0.8 mi SSW 3.5 mph - N/A   Overcast
3:35 AM 59.0 °F 59.0 °F 100% 30.22 in 1.0 mi SSW 5.8 mph - N/A   Overcast
3:55 AM 59.0 °F 59.0 °F 100% 30.24 in 1.2 mi WSW 3.5 mph - N/A   Overcast
4:15 AM 60.8 °F 60.8 °F 100% 30.23 in 2.5 mi SW 3.5 mph - N/A   Overcast
4:35 AM 60.8 °F 60.8 °F 100% 30.23 in 3.0 mi SW 3.5 mph - N/A   Overcast
4:55 AM 60.8 °F 60.8 °F 100% 30.23 in 3.0 mi SW 3.5 mph - N/A   Overcast
5:15 AM 60.8 °F 60.8 °F 100% 30.24 in 4.0 mi SW 5.8 mph - N/A   Overcast
5:35 AM 60.8 °F 60.8 °F 100% 30.24 in 5.0 mi SW 4.6 mph - N/A   Overcast
5:55 AM 60.8 °F 60.8 °F 100% 30.25 in 5.0 mi WSW 3.5 mph - N/A   Overcast
6:15 AM 60.8 °F 60.8 °F 100% 30.25 in 7.0 mi SW 3.5 mph - N/A   Overcast
6:35 AM 60.8 °F 60.8 °F 100% 30.25 in 7.0 mi SSW 3.5 mph - N/A   Overcast
6:55 AM 60.8 °F 60.8 °F 100% 30.26 in 7.0 mi Calm Calm - N/A   Overcast
7:15 AM 60.8 °F 60.8 °F 100% 30.27 in 7.0 mi SW 3.5 mph - N/A   Overcast
7:35 AM 60.8 °F 60.8 °F 100% 30.27 in 5.0 mi SW 3.5 mph - N/A   Overcast
7:55 AM 60.8 °F 60.8 °F 100% 30.27 in 5.0 mi Calm Calm - N/A   Overcast
8:15 AM 60.8 °F 60.8 °F 100% 30.27 in 5.0 mi SSW 3.5 mph - N/A   Overcast
8:35 AM 60.8 °F 60.8 °F 100% 30.27 in 7.0 mi WSW 3.5 mph - N/A   Overcast
9:35 AM 62.6 °F 60.8 °F 94% 30.28 in 10.0 mi SW 5.8 mph - N/A   Overcast
9:55 AM 64.4 °F 62.6 °F 94% 30.28 in 7.0 mi SW 4.6 mph - N/A   Mostly Cloudy
10:15 AM 64.4 °F 62.6 °F 94% 30.28 in 7.0 mi SSW 3.5 mph - N/A   Mostly Cloudy
10:35 AM 66.2 °F 60.8 °F 83% 30.28 in 7.0 mi SW 4.6 mph - N/A   Mostly Cloudy
10:55 AM 68.0 °F 60.8 °F 78% 30.27 in 7.0 mi Calm Calm - N/A   Scattered Clouds
11:15 AM 68.0 °F 60.8 °F 78% 30.27 in 7.0 mi SW 5.8 mph - N/A   Clear
11:35 AM 69.8 °F 60.8 °F 73% 30.26 in 7.0 mi SSW 5.8 mph - N/A   Clear
11:55 AM 71.6 °F 60.8 °F 69% 30.25 in 7.0 mi WSW 5.8 mph - N/A   Clear
12:15 PM 71.6 °F 60.8 °F 69% 30.24 in 7.0 mi SW 4.6 mph - N/A   Clear
12:35 PM 71.6 °F 60.8 °F 69% 30.22 in 7.0 mi Calm Calm - N/A   Clear
1:15 PM 73.4 °F 60.8 °F 65% 30.21 in 7.0 mi Calm Calm - N/A   Clear
1:35 PM 73.4 °F 59.0 °F 61% 30.20 in 7.0 mi SW 3.5 mph - N/A   Clear
1:55 PM 73.4 °F 59.0 °F 61% 30.19 in 7.0 mi Calm Calm - N/A   Clear
2:15 PM 75.2 °F 59.0 °F 57% 30.18 in 7.0 mi SW 3.5 mph - N/A   Clear
2:35 PM 75.2 °F 60.8 °F 61% 30.18 in 7.0 mi South 3.5 mph - N/A   Scattered Clouds
2:55 PM 75.2 °F 60.8 °F 61% 30.18 in 7.0 mi SW 4.6 mph - N/A   Scattered Clouds
3:15 PM 75.2 °F 60.8 °F 61% 30.17 in 7.0 mi South 4.6 mph - N/A   Scattered Clouds
3:35 PM 73.4 °F 60.8 °F 65% 30.18 in 7.0 mi SSW 3.5 mph - N/A   Clear
4:15 PM 73.4 °F 60.8 °F 65% 30.18 in 7.0 mi South 3.5 mph - N/A   Clear
4:35 PM 71.6 °F 60.8 °F 69% 30.19 in 7.0 mi SSW 3.5 mph - N/A Thunderstorm Clear
4:55 PM 69.8 °F 60.8 °F 73% 30.19 in 7.0 mi Calm Calm - N/A Thunderstorm Clear
5:15 PM 69.8 °F 60.8 °F 73% 30.20 in 7.0 mi Calm Calm - N/A Thunderstorm Thunderstorm
5:35 PM 66.2 °F 60.8 °F 83% 30.24 in 3.0 mi NW 16.1 mph 21.9 mph 0.15 in Rain , Thunderstorm Heavy Thunderstorms and Rain
5:55 PM 62.6 °F 62.6 °F 100% 30.22 in 7.0 mi West 3.5 mph - 0.32 in Rain , Thunderstorm Thunderstorms and Rain
6:15 PM 62.6 °F 62.6 °F 100% 30.23 in 10.0 mi Calm Calm - N/A Thunderstorm Thunderstorm
6:35 PM 62.6 °F 62.6 °F 100% 30.22 in 7.0 mi Calm Calm - N/A   Scattered Clouds
7:15 PM 60.8 °F 60.8 °F 100% 30.21 in 7.0 mi WNW 3.5 mph - N/A   Clear
7:35 PM 60.8 °F 60.8 °F 100% 30.22 in 5.0 mi Calm Calm - N/A   Clear
7:55 PM 59.0 °F 59.0 °F 100% 30.22 in 1.5 mi Calm Calm - N/A   Mostly Cloudy
8:15 PM 59.0 °F 59.0 °F 100% 30.21 in 0.5 mi Calm Calm - N/A Fog Fog
8:35 PM 60.8 °F 60.8 °F 100% 30.20 in 0.5 mi ENE 3.5 mph - N/A Fog Fog
8:55 PM 59.0 °F 59.0 °F 100% 30.19 in 1.0 mi ESE 4.6 mph - N/A   Mostly Cloudy
9:15 PM 60.8 °F 60.8 °F 100% 30.19 in 7.0 mi Calm Calm - N/A   Clear
9:35 PM 59.0 °F 59.0 °F 100% 30.19 in 5.0 mi SW 3.5 mph - N/A   Clear
9:55 PM 59.0 °F 59.0 °F 100% 30.19 in 4.0 mi Calm Calm - N/A   Clear
10:35 PM 59.0 °F 59.0 °F 100% 30.19 in 7.0 mi Calm Calm - N/A   Clear
10:55 PM 59.0 °F 59.0 °F 100% 30.19 in 5.0 mi Calm Calm - N/A   Clear
11:15 PM 59.0 °F 59.0 °F 100% 30.19 in 4.0 mi SW 3.5 mph - N/A   Clear
11:35 PM 59.0 °F 59.0 °F 100% 30.20 in 3.0 mi West 3.5 mph - N/A   Clear
11:55 PM 57.2 °F 57.2 °F 100% 30.20 in 2.5 mi Calm Calm - N/A   Clear